Rock Springs, WY

3:20 PM MST on November 18, 2017 (GMT -0700)
Rock Springs-Sweetwater

Weather History for KRKS - March, 2014

Change the Weather History Date:

Wednesday, March 19, 2014

  Actual Average Record
Temperature  
Mean Temperature 31 °F 35 °F  
Max Temperature 43 °F 45 °F 63 °F (2004)
Min Temperature 18 °F 24 °F -1 °F (1965)
Degree Days  
Heating Degree Days 34 30  
Month to date heating degree days 553 634  
Since 1 July heating degree days 6005 6486  
Cooling Degree Days 0 0  
Month to date cooling degree days 0 0  
Year to date cooling degree days 0 0  
Moisture  
Dew Point 11 °F    
Average Humidity 49    
Maximum Humidity 73    
Minimum Humidity 24    
Precipitation  
Precipitation 0.00 in 0.03 in 0.38 in (1994)
Month to date precipitation 0.37 0.38  
Year to date precipitation 0.52 1.31  
Sea Level Pressure  
Sea Level Pressure 30.19 in    
Wind  
Wind Speed 16 mph (WSW)    
Max Wind Speed 30 mph    
Max Gust Speed 39 mph    
Visibility 10 miles    
Events      
T = Trace of Precipitation, MM = Missing Value Source: NWS Daily Summary

Daily Weather History Graph

Daily Weather History Graph

Search for Another Location

Airport or City:

Trip Planner

Search our weather history database for the weather conditions in past years. The results will help you decide how hot, cold, wet, or windy it might be!

Date:

Astronomy

Mar. 19, 2014 Rise Set
Actual Time 7:21 AM MDT 7:27 PM MDT
Civil Twilight 6:53 AM MDT 7:55 PM MDT
Nautical Twilight 6:21 AM MDT 8:27 PM MDT
Astronomical Twilight 5:48 AM MDT 9:00 PM MDT
Moon 10:52 PM MDT (3/19) 8:46 AM MDT (3/19)
Length of Visible Light 13h 01m
Length of Day
12h 06m
Waning Gibbous, 91% of the Moon is Illuminated
Mar 19
Waning Gibbous
Mar 23
Last Quarter
Mar 30
New
Apr 7
First Quarter
Apr 15
Full

Hourly Weather History & Observations

Time (MDT) Temp. Windchill Dew Point Humidity Pressure Visibility Wind Dir Wind Speed Gust Speed Precip Events Conditions
12:54 AM 24.1 °F 11.5 °F 15.1 °F 69% 30.19 in 10.0 mi West 15.0 mph - N/A   Mostly Cloudy
1:54 AM 21.9 °F 10.4 °F 12.9 °F 68% 30.21 in 10.0 mi WSW 11.5 mph - N/A   Mostly Cloudy
2:54 AM 19.9 °F 6.7 °F 12.0 °F 71% 30.22 in 10.0 mi WSW 13.8 mph - N/A   Clear
3:54 AM 19.9 °F 6.2 °F 12.9 °F 74% 30.22 in 10.0 mi WSW 15.0 mph - N/A   Clear
4:54 AM 19.0 °F 5.6 °F 12.9 °F 77% 30.23 in 10.0 mi WSW 13.8 mph - N/A   Clear
5:54 AM 19.0 °F 4.5 °F 12.9 °F 77% 30.24 in 10.0 mi WSW 16.1 mph - N/A   Clear
6:54 AM 19.0 °F 4.0 °F 12.0 °F 74% 30.27 in 10.0 mi WSW 17.3 mph - N/A   Clear
7:54 AM 19.0 °F 4.5 °F 12.0 °F 74% 30.28 in 10.0 mi SW 16.1 mph - N/A   Clear
8:54 AM 21.9 °F 8.7 °F 12.0 °F 66% 30.27 in 10.0 mi WSW 15.0 mph - N/A   Clear
9:54 AM 26.1 °F 13.6 °F 14.0 °F 60% 30.28 in 10.0 mi WSW 16.1 mph - N/A   Clear
10:54 AM 28.9 °F 17.3 °F 16.0 °F 58% 30.24 in 10.0 mi West 16.1 mph - N/A   Clear
11:54 AM 32.0 °F 20.5 °F 14.0 °F 48% 30.23 in 10.0 mi SW 18.4 mph - N/A   Clear
12:54 PM 34.0 °F 23.0 °F 12.9 °F 42% 30.22 in 10.0 mi WSW 18.4 mph 24.2 mph N/A   Clear
1:54 PM 37.0 °F 27.0 °F 14.0 °F 39% 30.19 in 10.0 mi WSW 18.4 mph - N/A   Clear
2:54 PM 39.9 °F 32.1 °F 12.9 °F 33% 30.17 in 10.0 mi West 13.8 mph - N/A   Clear
3:54 PM 41.0 °F 31.9 °F 10.9 °F 29% 30.14 in 10.0 mi WSW 19.6 mph 27.6 mph N/A   Clear
4:54 PM 42.1 °F 33.9 °F 10.9 °F 28% 30.13 in 10.0 mi WSW 17.3 mph 26.5 mph N/A   Clear
5:54 PM 43.0 °F 34.2 °F 8.1 °F 24% 30.12 in 10.0 mi WSW 20.7 mph - N/A   Clear
6:54 PM 39.9 °F 30.8 °F 8.1 °F 27% 30.12 in 10.0 mi West 18.4 mph - N/A   Clear
7:54 PM 36.0 °F 25.6 °F 10.9 °F 36% 30.13 in 10.0 mi West 18.4 mph - N/A   Clear
8:54 PM 35.1 °F 23.8 °F 8.1 °F 33% 30.14 in 10.0 mi West 20.7 mph - N/A   Clear
9:54 PM 35.1 °F 24.1 °F 6.1 °F 30% 30.13 in 10.0 mi West 19.6 mph - N/A   Clear
10:54 PM 34.0 °F 21.0 °F 3.9 °F 28% 30.10 in 10.0 mi West 26.5 mph 34.5 mph N/A   Clear
11:54 PM 30.9 °F 26.2 °F 6.1 °F 35% 30.12 in 10.0 mi SE 4.6 mph - N/A   Clear